Wind_Speed
40 37 33 30 31 32 33 34 32 30 28 34 35 36 39 41 41 38 36 34 34 36 39 41 43 44 46 48 50 52 53 54 55 55 56 57 58 60 61 63 64 66 64 61
39 39 40 40 39 36 32 29 29 31 34 42 46 45 45 46 46 49 50 50 48 47 47 47 48 49 51 52 54 55 55 55 55 55 57 59 61 63 65 65 64 61 57 54
37 37 38 41 41 41 42 42 43 44 47 49 49 48 49 51 53 54 54 54 53 52 50 50 49 50 51 52 53 54 54 54 54 56 58 61 65 66 63 60 57 53 50 50
34 35 39 36 35 39 42 46 47 49 49 49 48 46 47 48 50 52 53 53 53 51 50 49 49 49 49 50 50 51 51 52 55 57 59 61 63 62 59 52 49 47 47 50
33 33 34 30 35 37 40 44 44 44 44 44 45 45 45 46 48 49 50 51 51 50 49 48 47 47 48 48 48 48 49 52 54 56 59 61 59 55 50 46 45 46 47 49
30 31 31 33 35 36 36 40 39 39 38 39 40 42 43 44 45 46 47 47 47 47 46 46 45 45 44 44 45 47 49 52 55 57 58 56 52 48 44 44 45 46 46 47
27 29 30 33 34 35 37 40 39 37 36 36 38 39 40 41 42 42 43 43 43 43 42 40 40 39 40 41 43 46 50 52 53 51 48 45 43 42 42 43 44 44 44 43
26 28 31 33 33 34 35 35 36 35 35 36 36 37 37 38 38 38 38 37 37 35 34 33 33 35 37 40 44 46 47 47 44 42 41 40 39 40 41 42 42 41 39 36
27 27 30 31 32 33 33 34 34 34 34 35 35 34 34 33 33 32 32 31 30 29 28 29 31 33 36 39 41 40 39 37 36 35 37 38 39 39 39 38 36 34 31 28
26 28 31 32 32 32 32 33 33 33 33 33 32 31 30 29 28 27 27 27 26 25 26 28 30 32 34 34 32 31 31 32 33 34 35 36 37 36 34 31 28 25 23 22
24 27 30 31 30 30 30 30 30 30 30 29 28 26 25 24 23 23 22 22 22 23 25 26 26 25 25 26 27 28 30 32 33 34 34 33 32 29 26 23 21 20 20 19
23 25 26 27 26 26 26 26 25 24 23 22 21 20 19 19 18 18 18 18 19 19 19 19 20 21 23 24 26 28 30 31 32 31 29 27 24 21 19 18 18 18 18 17
21 22 23 23 23 23 22 20 18 17 16 14 13 13 12 12 12 13 14 14 14 14 15 17 19 21 23 25 27 29 30 30 29 27 24 21 19 17 16 16 16 17 16 15
18 18 18 17 16 16 14 12 11 10 8 6 6 7 7 7 8 8 9 10 11 13 15 17 19 22 25 27 28 29 29 27 25 22 19 18 16 16 16 16 16 15 14 13
13 13 12 12 11 10 8 7 7 6 4 3 3 3 3 4 5 6 7 9 11 13 15 18 22 25 27 29 29 28 27 24 22 19 17 16 16 16 16 15 14 13 11 10
5 5 5 6 6 7 6 6 5 4 3 2 1 2 2 3 4 5 7 9 12 15 18 21 24 27 28 28 27 25 24 22 20 18 17 16 16 15 14 13 12 10 8 7
0 2 3 5 5 6 5 4 5 5 4 1 1 2 2 4 5 6 8 11 14 17 20 23 26 28 28 28 26 24 22 20 18 17 16 15 15 13 12 10 8 6 5 5
4 5 6 7 7 6 6 6 6 4 3 2 2 4 5 5 6 8 10 13 16 19 22 25 26 27 27 26 24 22 20 19 17 16 15 14 13 11 10 7 5 5 4 5
6 7 7 8 8 8 7 7 5 4 4 4 6 7 6 7 7 9 11 14 17 21 23 25 26 26 25 24 23 21 20 19 17 16 15 13 11 10 8 7 6 6 6 7
5 6 6 8 8 8 7 7 6 5 5 7 8 8 7 8 8 10 13 16 19 22 24 25 25 25 25 25 24 24 23 21 19 17 15 13 12 11 10 9 8 8 9 10
5 6 6 7 7 8 7 7 6 6 7 8 8 8 8 8 9 11 14 17 20 23 24 25 26 27 27 26 27 27 26 24 22 20 17 16 14 14 13 12 12 12 12 13
6 6 6 6 7 8 8 7 7 7 8 8 8 8 8 8 10 12 15 18 20 22 24 26 28 28 28 29 31 31 30 28 26 24 21 19 18 17 16 16 16 16 16 16
7 7 7 7 7 8 8 8 8 8 9 9 9 8 8 9 10 12 14 17 20 22 25 27 29 29 29 31 34 34 34 33 31 29 26 23 21 20 19 19 19 18 18 18
9 9 8 9 8 8 8 9 9 10 10 10 9 8 8 9 10 12 14 16 19 21 24 27 30 30 31 34 35 36 37 37 36 34 32 29 27 24 23 22 21 19 18 18
10 10 9 10 10 10 10 10 10 11 12 12 10 9 9 9 9 11 13 15 17 20 23 27 29 31 33 35 36 37 38 39 39 39 37 35 33 30 28 25 23 21 19 18
13 11 11 11 12 12 12 11 12 13 14 13 11 10 9 9 9 10 12 13 15 18 21 24 27 30 32 34 36 37 38 40 41 42 42 41 39 37 35 32 30 27 24 22
15 14 13 13 13 14 14 13 13 14 15 15 13 11 10 10 9 10 11 12 14 16 18 22 24 27 29 32 34 35 37 39 40 42 43 44 44 43 42 41 39 37 34 32
Wind_Direction
244 235 231 237 239 239 236 230 235 244 256 262 262 259 260 263 269 274 284 288 286 282 281 279 279 279 281 283 285 286 288 290 291 291 292 292 292 291 291 290 290 291 292 294
249 246 238 238 239 240 244 247 252 253 258 258 255 257 262 267 272 278 284 287 286 285 283 281 281 281 282 284 285 287 288 290 291 291 291 291 290 288 287 288 289 291 294 298
253 252 250 247 246 248 249 250 252 253 255 259 262 265 268 271 275 278 280 282 284 285 285 284 284 283 283 283 284 286 287 289 290 289 288 289 289 287 287 288 291 295 300 303
255 254 254 258 253 251 252 254 255 259 263 268 270 272 273 274 276 278 280 283 285 286 286 285 284 283 282 283 283 285 287 288 288 288 289 289 290 290 291 295 300 303 304 304
256 256 257 253 253 255 255 257 260 264 267 270 272 273 273 275 277 279 281 283 284 285 285 284 283 282 282 282 283 285 286 286 287 288 289 290 291 293 298 303 304 304 304 304
254 254 252 248 251 254 258 260 263 266 269 270 271 273 275 276 278 279 281 282 283 283 283 283 283 283 283 283 284 284 284 285 286 287 288 290 294 299 304 305 305 305 305 305
254 253 249 251 253 255 255 261 268 271 272 272 273 275 277 278 279 280 281 282 283 284 284 284 284 283 283 283 282 282 283 285 286 289 293 298 303 305 305 305 305 306 306 307
254 252 249 253 255 257 262 267 270 272 273 275 275 277 278 280 280 281 282 283 284 286 287 287 286 285 284 283 283 282 284 287 292 297 301 304 305 305 305 306 307 308 309 309
256 258 260 260 260 262 265 268 271 273 274 275 276 277 279 279 280 281 283 285 288 289 290 289 288 286 284 284 286 288 293 298 303 304 305 305 306 307 308 309 310 311 311 311
255 256 260 264 267 268 269 270 271 272 273 274 275 277 278 279 281 284 286 288 290 292 292 290 289 287 289 291 295 300 304 306 307 306 307 309 310 312 313 314 314 314 316 317
259 260 263 267 270 271 270 271 270 271 272 272 273 274 276 279 283 286 290 291 292 293 293 292 293 297 302 306 308 308 308 309 310 311 313 315 316 318 319 319 320 321 323 324
264 263 264 266 267 267 267 267 266 267 268 269 269 271 275 280 285 289 292 294 295 297 301 307 311 313 313 312 312 312 313 313 315 317 319 321 322 323 325 326 327 329 331 331
266 264 264 264 264 265 265 264 262 261 262 263 266 269 274 280 286 294 298 302 305 312 318 320 319 318 317 317 317 318 320 321 323 324 325 327 328 330 331 332 333 334 336 336
270 268 265 263 263 260 255 250 247 245 246 252 265 273 280 287 296 306 313 319 324 327 327 326 325 325 325 325 325 326 326 327 328 328 329 331 333 334 335 335 336 338 339 339
277 270 261 254 251 242 230 222 213 209 212 234 269 280 297 313 325 334 340 342 340 338 337 335 334 334 333 332 332 332 332 332 332 332 332 334 334 334 334 335 336 338 342 345
288 265 240 226 219 210 204 198 194 197 194 209 256 315 339 360 11 9 2 356 353 350 347 344 341 339 338 338 339 339 338 338 337 336 336 337 336 336 336 336 337 341 347 356
181 146 158 168 169 166 162 162 170 174 176 175 7 29 50 50 37 24 14 8 2 357 353 349 347 346 346 346 347 347 347 346 344 343 342 341 341 342 342 343 346 353 3 16
110 120 130 131 132 139 138 138 139 144 146 113 85 88 84 66 49 35 25 16 9 3 359 356 355 355 355 356 357 355 355 354 353 352 351 350 351 354 357 4 16 27 40 58
108 116 120 124 129 132 132 134 134 130 119 110 107 102 88 69 53 42 32 23 15 11 7 5 5 5 6 8 7 8 10 8 6 4 4 6 10 17 27 40 54 64 79 88
132 128 130 132 135 139 138 138 137 130 123 121 116 107 91 72 58 48 37 29 23 19 16 15 15 18 20 20 20 23 22 20 18 18 21 26 32 41 51 59 70 81 90 96
163 147 142 143 145 145 142 141 139 134 131 126 120 109 93 76 64 53 43 36 31 27 25 26 28 30 30 30 32 33 31 30 31 34 38 44 50 56 61 67 76 86 94 98
191 175 166 161 159 156 153 151 150 144 138 133 125 112 96 81 69 59 50 44 39 36 35 37 39 39 38 38 40 39 38 38 40 43 48 52 57 61 67 74 80 87 92 95
210 201 194 184 175 169 165 162 160 155 148 143 133 117 101 88 76 66 58 52 47 43 44 45 46 46 45 45 46 44 44 45 46 49 52 57 61 66 71 75 79 85 89 91
220 214 207 200 191 183 175 171 169 166 160 153 142 126 110 97 85 74 66 60 54 51 51 52 53 52 51 51 50 49 48 49 51 53 56 60 64 68 71 74 78 82 85 88
220 217 213 208 202 194 186 181 177 174 169 161 151 137 123 109 96 84 75 68 62 58 57 57 57 56 55 55 54 53 53 53 54 55 57 60 64 67 70 73 76 78 80 82
220 221 219 214 208 201 195 191 186 182 176 169 160 149 136 124 111 96 85 77 70 65 63 62 61 60 59 58 57 57 57 57 57 58 60 62 64 66 68 71 72 73 74 75
217 218 217 214 210 205 201 196 192 187 181 175 169 161 149 138 126 112 98 87 79 73 70 67 65 63 62 61 60 59 59 60 60 61 62 63 64 65 67 69 70 70 70 70
Height
5750 5754 5756 5756 5758 5759 5760 5760 5761 5762 5761 5753 5754 5754 5753 5751 5749 5746 5742 5742 5744 5744 5742 5740 5738 5735 5732 5729 5725 5722 5718 5714 5710 5706 5701 5696 5690 5685 5679 5673 5667 5661 5655 5649
5739 5743 5746 5748 5750 5751 5752 5752 5751 5752 5750 5741 5743 5745 5745 5744 5741 5738 5735 5733 5732 5732 5731 5729 5726 5723 5720 5716 5713 5709 5705 5701 5697 5692 5687 5682 5676 5670 5664 5658 5653 5647 5641 5636
5729 5732 5733 5737 5742 5742 5743 5742 5740 5737 5734 5734 5736 5738 5737 5736 5733 5730 5726 5723 5722 5720 5718 5716 5713 5710 5707 5703 5700 5696 5692 5688 5684 5679 5674 5668 5662 5656 5650 5645 5639 5634 5629 5624
5719 5722 5723 5730 5729 5729 5730 5728 5728 5727 5727 5727 5726 5728 5727 5725 5722 5719 5716 5713 5710 5708 5705 5703 5700 5697 5694 5691 5687 5684 5680 5676 5672 5666 5661 5655 5650 5644 5638 5632 5627 5623 5618 5613
5710 5712 5714 5717 5715 5718 5718 5715 5717 5718 5718 5718 5716 5715 5715 5714 5711 5708 5705 5702 5699 5696 5693 5690 5688 5685 5682 5679 5676 5672 5668 5664 5660 5655 5650 5644 5638 5632 5627 5622 5617 5612 5607 5601
5701 5703 5705 5705 5706 5707 5709 5705 5707 5708 5708 5708 5707 5704 5704 5702 5700 5697 5694 5691 5688 5685 5682 5679 5676 5673 5670 5668 5665 5661 5657 5653 5648 5643 5638 5632 5626 5621 5616 5612 5607 5601 5596 5590
5693 5694 5695 5695 5696 5698 5699 5697 5698 5698 5698 5697 5696 5694 5693 5691 5689 5686 5683 5680 5677 5674 5671 5668 5666 5663 5660 5657 5654 5651 5646 5642 5637 5631 5626 5621 5616 5611 5606 5602 5596 5591 5585 5579
5685 5686 5687 5686 5687 5689 5689 5688 5688 5688 5687 5687 5685 5683 5682 5680 5678 5676 5673 5670 5667 5665 5662 5659 5657 5654 5651 5648 5644 5640 5636 5631 5626 5620 5616 5612 5607 5602 5596 5591 5586 5580 5574 5569
5680 5680 5678 5678 5679 5680 5680 5680 5679 5678 5678 5676 5675 5674 5673 5671 5669 5667 5665 5662 5660 5657 5655 5652 5649 5646 5643 5639 5635 5631 5626 5622 5618 5613 5607 5603 5598 5592 5587 5581 5576 5571 5566 5561
5673 5672 5671 5670 5671 5672 5672 5671 5670 5669 5668 5667 5666 5666 5664 5663 5662 5660 5658 5656 5653 5651 5648 5645 5642 5639 5635 5631 5627 5623 5619 5615 5611 5605 5600 5594 5589 5583 5577 5572 5568 5563 5559 5555
5666 5666 5665 5664 5664 5663 5663 5662 5661 5660 5660 5659 5659 5658 5658 5657 5656 5654 5652 5650 5648 5645 5643 5640 5636 5633 5629 5625 5621 5617 5612 5608 5603 5597 5591 5585 5580 5575 5570 5566 5562 5558 5555 5551
5660 5659 5658 5657 5656 5655 5655 5654 5654 5654 5653 5653 5653 5653 5653 5652 5651 5649 5648 5646 5644 5641 5638 5635 5632 5628 5625 5620 5616 5611 5606 5600 5594 5589 5583 5578 5574 5569 5565 5562 5558 5554 5551 5547
5652 5651 5650 5649 5649 5648 5648 5648 5648 5649 5649 5649 5649 5650 5649 5649 5648 5646 5644 5643 5641 5638 5635 5632 5629 5625 5621 5616 5610 5604 5599 5593 5587 5582 5577 5573 5569 5565 5562 5558 5555 5551 5548 5545
5645 5645 5644 5643 5643 5643 5643 5644 5645 5646 5647 5647 5648 5648 5647 5647 5646 5644 5643 5641 5639 5636 5634 5630 5626 5622 5616 5610 5604 5598 5592 5587 5582 5577 5573 5569 5565 5562 5559 5555 5552 5549 5547 5544
5640 5639 5639 5639 5639 5640 5641 5642 5643 5645 5646 5647 5647 5647 5647 5646 5645 5644 5643 5641 5638 5636 5632 5628 5623 5617 5611 5605 5599 5593 5587 5582 5577 5573 5569 5565 5562 5559 5556 5553 5550 5548 5545 5543
5637 5636 5636 5637 5638 5639 5640 5642 5643 5645 5646 5647 5647 5647 5647 5646 5645 5644 5643 5641 5639 5635 5631 5626 5620 5614 5608 5601 5595 5589 5583 5578 5573 5569 5566 5563 5559 5556 5554 5551 5549 5547 5545 5543
5638 5637 5637 5638 5639 5640 5641 5643 5644 5646 5647 5647 5648 5648 5647 5647 5647 5646 5644 5642 5639 5635 5630 5625 5619 5612 5605 5598 5592 5586 5581 5576 5571 5567 5564 5560 5557 5554 5552 5550 5548 5546 5545 5544
5639 5639 5639 5639 5640 5641 5643 5644 5646 5647 5648 5648 5649 5649 5649 5649 5649 5648 5646 5643 5639 5635 5630 5624 5617 5611 5604 5597 5591 5585 5580 5575 5570 5566 5563 5559 5556 5553 5551 5549 5547 5546 5545 5545
5640 5641 5641 5641 5643 5644 5645 5647 5648 5649 5649 5650 5651 5651 5652 5652 5651 5650 5647 5645 5641 5636 5630 5624 5618 5611 5605 5598 5592 5586 5580 5575 5571 5566 5562 5559 5556 5553 5551 5549 5548 5547 5547 5546
5642 5643 5643 5644 5645 5647 5648 5649 5650 5650 5651 5652 5653 5654 5654 5654 5654 5652 5650 5647 5642 5637 5632 5626 5620 5614 5607 5601 5595 5588 5582 5577 5572 5567 5563 5560 5557 5554 5553 5551 5550 5549 5549 5549
5644 5645 5645 5646 5647 5649 5650 5651 5652 5653 5654 5655 5656 5657 5657 5657 5656 5654 5652 5649 5645 5640 5636 5630 5623 5617 5611 5605 5599 5592 5586 5580 5575 5570 5566 5562 5560 5557 5556 5554 5553 5553 5553 5553
5645 5646 5647 5648 5649 5651 5652 5653 5654 5655 5656 5657 5659 5660 5660 5660 5659 5657 5655 5652 5649 5645 5640 5634 5628 5622 5617 5611 5604 5597 5591 5585 5579 5574 5570 5567 5564 5562 5560 5559 5558 5558 5558 5558
5645 5647 5648 5649 5651 5652 5653 5654 5656 5657 5658 5660 5661 5662 5663 5663 5662 5660 5658 5656 5653 5649 5645 5639 5634 5628 5624 5618 5611 5605 5598 5592 5586 5581 5576 5572 5569 5567 5566 5565 5564 5564 5564 5564
5644 5646 5648 5650 5651 5653 5654 5656 5657 5659 5660 5662 5664 5665 5665 5665 5665 5664 5662 5660 5658 5655 5650 5646 5640 5636 5631 5625 5619 5613 5607 5601 5595 5589 5584 5580 5577 5574 5573 5572 5571 5570 5570 5570
5643 5645 5647 5649 5651 5653 5655 5656 5658 5660 5662 5664 5665 5667 5668 5668 5668 5667 5666 5664 5662 5660 5657 5652 5648 5644 5639 5633 5627 5622 5617 5611 5605 5600 5594 5590 5586 5583 5581 5579 5578 5578 5577 5577
5642 5644 5646 5649 5651 5653 5655 5657 5658 5660 5662 5665 5667 5669 5670 5670 5671 5670 5670 5669 5667 5665 5663 5659 5655 5651 5646 5642 5637 5632 5627 5622 5617 5611 5606 5602 5598 5594 5591 5589 5587 5586 5585 5583
5640 5643 5645 5647 5650 5652 5654 5656 5659 5661 5663 5666 5668 5670 5672 5673 5673 5674 5673 5673 5672 5670 5668 5665 5662 5658 5655 5651 5647 5643 5638 5634 5629 5624 5620 5615 5611 5608 5604 5601 5598 5596 5594 5592